Time,TemperatureF,DewpointF,PressureIn,WindDirection,WindDirectionDegrees,WindSpeedMPH,WindSpeedGustMPH,Humidity,HourlyPrecipIn,Conditions,Clouds,dailyrainin,SoftwareType,DateUTC
2013-09-12 00:02:00,72.2,67.4,30.02,WSW,258,0.0,1.0,85,0.00,,,0.00,Wunderground v.1.15,2013-09-12 04:02:00,
2013-09-12 00:04:00,72.2,67.4,30.02,ESE,104,0.0,1.0,85,0.00,,,0.00,Wunderground v.1.15,2013-09-12 04:04:00,
2013-09-12 00:08:00,72.5,67.7,30.02,East,92,0.0,1.0,85,0.00,,,0.00,Wunderground v.1.15,2013-09-12 04:08:00,
2013-09-12 00:14:00,72.7,67.9,30.02,SSW,207,1.0,1.0,85,0.00,,,0.00,Wunderground v.1.15,2013-09-12 04:14:00,
2013-09-12 00:20:00,72.7,67.6,30.02,ESE,115,0.0,0.0,84,0.00,,,0.00,Wunderground v.1.15,2013-09-12 04:20:00,
2013-09-12 00:26:00,72.7,67.9,30.02,ESE,115,0.0,0.0,85,0.00,,,0.00,Wunderground v.1.15,2013-09-12 04:26:00,
2013-09-12 00:32:00,72.5,68.1,30.02,WSW,253,0.0,0.0,86,0.00,,,0.00,Wunderground v.1.15,2013-09-12 04:32:00,
2013-09-12 00:38:00,72.4,68.0,30.02,SW,234,1.0,1.0,86,0.00,,,0.00,Wunderground v.1.15,2013-09-12 04:38:00,
2013-09-12 00:44:00,72.4,68.0,30.01,SSW,205,0.0,1.0,86,0.00,,,0.00,Wunderground v.1.15,2013-09-12 04:44:00,
2013-09-12 00:50:00,72.4,68.0,30.02,WSW,255,0.0,0.0,86,0.00,,,0.00,Wunderground v.1.15,2013-09-12 04:50:00,
2013-09-12 00:56:00,72.6,67.8,30.01,WSW,257,0.0,0.0,85,0.00,,,0.00,Wunderground v.1.15,2013-09-12 04:56:00,
2013-09-12 01:00:00,72.6,67.8,30.01,WSW,257,0.0,0.0,85,0.00,,,0.00,Wunderground v.1.15,2013-09-12 05:00:00,
2013-09-12 01:04:00,72.5,67.7,30.01,SSW,192,0.0,1.0,85,0.00,,,0.00,Wunderground v.1.15,2013-09-12 05:04:00,
2013-09-12 01:10:00,72.2,67.8,30.00,SW,226,0.0,0.0,86,0.00,,,0.00,Wunderground v.1.15,2013-09-12 05:10:00,
2013-09-12 01:16:00,72.0,67.6,30.00,West,266,0.0,1.0,86,0.00,,,0.00,Wunderground v.1.15,2013-09-12 05:16:00,
2013-09-12 01:22:00,72.0,67.2,30.00,SW,229,0.0,0.0,85,0.00,,,0.00,Wunderground v.1.15,2013-09-12 05:22:00,
2013-09-12 01:28:00,72.2,67.8,30.00,SSW,212,0.0,0.0,86,0.00,,,0.00,Wunderground v.1.15,2013-09-12 05:28:00,
2013-09-12 01:34:00,71.9,67.5,30.00,WSW,247,0.0,0.0,86,0.00,,,0.00,Wunderground v.1.15,2013-09-12 05:34:00,
2013-09-12 01:40:00,71.6,67.5,30.00,WSW,247,0.0,0.0,87,0.00,,,0.00,Wunderground v.1.15,2013-09-12 05:40:00,
2013-09-12 01:46:00,71.3,67.6,30.00,WSW,247,0.0,0.0,88,0.00,,,0.00,Wunderground v.1.15,2013-09-12 05:46:00,
2013-09-12 01:52:00,71.1,67.4,30.00,WSW,247,0.0,0.0,88,0.00,,,0.00,Wunderground v.1.15,2013-09-12 05:52:00,
2013-09-12 01:58:00,70.9,67.5,30.00,WSW,247,0.0,0.0,89,0.00,,,0.00,Wunderground v.1.15,2013-09-12 05:58:00,
2013-09-12 02:04:00,70.8,67.4,30.00,WSW,247,0.0,2.0,89,0.00,,,0.00,Wunderground v.1.15,2013-09-12 06:04:00,
2013-09-12 02:10:00,70.7,67.3,29.99,SW,229,0.0,1.0,89,0.00,,,0.00,Wunderground v.1.15,2013-09-12 06:10:00,
2013-09-12 02:16:00,70.7,67.6,29.99,SSE,147,0.0,1.0,90,0.00,,,0.00,Wunderground v.1.15,2013-09-12 06:16:00,
2013-09-12 02:22:00,70.7,67.6,29.99,SSE,148,0.0,0.0,90,0.00,,,0.00,Wunderground v.1.15,2013-09-12 06:22:00,
2013-09-12 02:28:00,70.6,67.5,29.99,SW,219,0.0,0.0,90,0.00,,,0.00,Wunderground v.1.15,2013-09-12 06:28:00,
2013-09-12 02:34:00,70.8,68.0,29.98,SE,133,0.0,0.0,91,0.00,,,0.00,Wunderground v.1.15,2013-09-12 06:34:00,
2013-09-12 02:40:00,70.8,68.0,29.98,SE,132,0.0,1.0,91,0.00,,,0.00,Wunderground v.1.15,2013-09-12 06:40:00,
2013-09-12 02:46:00,70.7,67.9,29.98,SE,133,0.0,1.0,91,0.00,,,0.00,Wunderground v.1.15,2013-09-12 06:46:00,
2013-09-12 03:06:00,70.5,68.1,29.98,SE,134,1.0,1.0,92,0.00,,,0.00,Wunderground v.1.15,2013-09-12 07:06:00,
2013-09-12 03:12:00,70.5,68.1,29.97,East,98,0.0,1.0,92,0.00,,,0.00,Wunderground v.1.15,2013-09-12 07:12:00,
2013-09-12 03:18:00,70.5,67.7,29.97,East,98,0.0,1.0,91,0.00,,,0.00,Wunderground v.1.15,2013-09-12 07:18:00,
2013-09-12 03:24:00,70.6,67.8,29.98,East,99,0.0,0.0,91,0.00,,,0.00,Wunderground v.1.15,2013-09-12 07:24:00,
2013-09-12 03:30:00,70.6,67.8,29.98,East,99,0.0,1.0,91,0.00,,,0.00,Wunderground v.1.15,2013-09-12 07:30:00,
2013-09-12 03:36:00,70.6,67.8,29.98,SE,127,1.0,1.0,91,0.00,,,0.00,Wunderground v.1.15,2013-09-12 07:36:00,
2013-09-12 03:42:00,70.7,67.9,29.98,SE,127,1.0,1.0,91,0.00,,,0.00,Wunderground v.1.15,2013-09-12 07:42:00,
2013-09-12 03:48:00,70.7,67.9,29.98,SE,127,0.0,1.0,91,0.00,,,0.00,Wunderground v.1.15,2013-09-12 07:48:00,
2013-09-12 03:54:00,70.7,67.9,29.97,SE,127,0.0,1.0,91,0.00,,,0.00,Wunderground v.1.15,2013-09-12 07:54:00,
2013-09-12 04:00:00,70.6,67.8,29.97,SE,127,0.0,1.0,91,0.00,,,0.00,Wunderground v.1.15,2013-09-12 08:00:00,
2013-09-12 04:06:00,70.6,68.2,29.97,SE,127,0.0,1.0,92,0.00,,,0.00,Wunderground v.1.15,2013-09-12 08:06:00,
2013-09-12 04:12:00,70.8,68.0,29.97,East,85,0.0,0.0,91,0.00,,,0.00,Wunderground v.1.15,2013-09-12 08:12:00,
2013-09-12 04:18:00,70.8,68.0,29.97,East,85,0.0,0.0,91,0.00,,,0.00,Wunderground v.1.15,2013-09-12 08:18:00,
2013-09-12 04:24:00,70.7,67.9,29.97,East,85,0.0,0.0,91,0.00,,,0.00,Wunderground v.1.15,2013-09-12 08:24:00,
2013-09-12 04:30:00,70.7,68.3,29.97,East,85,0.0,0.0,92,0.00,,,0.00,Wunderground v.1.15,2013-09-12 08:30:00,
2013-09-12 04:36:00,70.8,68.0,29.97,East,85,0.0,1.0,91,0.00,,,0.00,Wunderground v.1.15,2013-09-12 08:36:00,
2013-09-12 04:42:00,70.9,68.1,29.97,East,85,0.0,0.0,91,0.00,,,0.00,Wunderground v.1.15,2013-09-12 08:42:00,
2013-09-12 04:48:00,70.9,68.1,29.97,East,91,0.0,1.0,91,0.00,,,0.00,Wunderground v.1.15,2013-09-12 08:48:00,
2013-09-12 04:54:00,70.8,68.4,29.97,East,91,1.0,1.0,92,0.00,,,0.00,Wunderground v.1.15,2013-09-12 08:54:00,
2013-09-12 05:00:00,70.7,68.3,29.97,East,91,0.0,0.0,92,0.00,,,0.00,Wunderground v.1.15,2013-09-12 09:00:00,
2013-09-12 05:06:00,70.8,68.4,29.96,East,95,0.0,1.0,92,0.00,,,0.00,Wunderground v.1.15,2013-09-12 09:06:00,
2013-09-12 05:12:00,70.9,68.5,29.97,East,96,0.0,0.0,92,0.00,,,0.00,Wunderground v.1.15,2013-09-12 09:12:00,
2013-09-12 05:18:00,70.8,68.4,29.97,East,96,0.0,0.0,92,0.00,,,0.00,Wunderground v.1.15,2013-09-12 09:18:00,
2013-09-12 05:24:00,71.0,68.6,29.96,East,101,0.0,1.0,92,0.00,,,0.00,Wunderground v.1.15,2013-09-12 09:24:00,
2013-09-12 05:30:00,71.0,68.6,29.97,East,101,0.0,0.0,92,0.00,,,0.00,Wunderground v.1.15,2013-09-12 09:30:00,
2013-09-12 05:36:00,70.9,68.5,29.97,East,101,0.0,1.0,92,0.00,,,0.00,Wunderground v.1.15,2013-09-12 09:36:00,
2013-09-12 05:42:00,70.9,68.8,29.97,ESE,115,0.0,1.0,93,0.00,,,0.00,Wunderground v.1.15,2013-09-12 09:42:00,
2013-09-12 05:48:00,70.9,68.8,29.97,SE,131,1.0,1.0,93,0.00,,,0.00,Wunderground v.1.15,2013-09-12 09:48:00,
2013-09-12 05:54:00,70.9,68.8,29.97,SE,131,0.0,1.0,93,0.00,,,0.00,Wunderground v.1.15,2013-09-12 09:54:00,
2013-09-12 06:00:00,70.9,68.8,29.97,SE,131,0.0,1.0,93,0.00,,,0.00,Wunderground v.1.15,2013-09-12 10:00:00,
2013-09-12 06:06:00,70.9,68.8,29.96,SE,131,0.0,1.0,93,0.00,,,0.00,Wunderground v.1.15,2013-09-12 10:06:00,
2013-09-12 06:12:00,70.9,68.8,29.96,SE,131,0.0,0.0,93,0.00,,,0.00,Wunderground v.1.15,2013-09-12 10:12:00,
2013-09-12 06:18:00,71.0,68.9,29.96,SE,131,0.0,1.0,93,0.00,,,0.00,Wunderground v.1.15,2013-09-12 10:18:00,
2013-09-12 06:24:00,71.3,69.5,29.96,West,275,0.0,1.0,94,0.00,,,0.00,Wunderground v.1.15,2013-09-12 10:24:00,
2013-09-12 06:30:00,71.5,69.4,29.96,NE,56,0.0,0.0,93,0.00,,,0.00,Wunderground v.1.15,2013-09-12 10:30:00,
2013-09-12 06:36:00,71.8,70.0,29.95,East,80,0.0,1.0,94,0.00,,,0.00,Wunderground v.1.15,2013-09-12 10:36:00,
2013-09-12 06:42:00,72.0,70.2,29.95,East,90,0.0,1.0,94,0.00,,,0.00,Wunderground v.1.15,2013-09-12 10:42:00,
2013-09-12 06:48:00,72.1,70.3,29.95,ENE,58,0.0,1.0,94,0.00,,,0.00,Wunderground v.1.15,2013-09-12 10:48:00,
2013-09-12 06:54:00,72.2,70.4,29.96,ENE,60,0.0,1.0,94,0.00,,,0.00,Wunderground v.1.15,2013-09-12 10:54:00,
2013-09-12 07:00:00,72.2,70.4,29.95,ENE,70,1.0,1.0,94,0.00,,,0.00,Wunderground v.1.15,2013-09-12 11:00:00,
2013-09-12 07:06:00,72.3,70.5,29.95,NNE,21,1.0,1.0,94,0.00,,,0.00,Wunderground v.1.15,2013-09-12 11:06:00,
2013-09-12 07:12:00,72.3,70.5,29.95,NNE,21,0.0,0.0,94,0.00,,,0.00,Wunderground v.1.15,2013-09-12 11:12:00,
2013-09-12 07:18:00,72.3,70.5,29.95,ESE,115,0.0,1.0,94,0.00,,,0.00,Wunderground v.1.15,2013-09-12 11:18:00,
2013-09-12 07:24:00,72.3,70.5,29.95,North,354,0.0,1.0,94,0.00,,,0.00,Wunderground v.1.15,2013-09-12 11:24:00,
2013-09-12 07:30:00,72.4,70.9,29.97,North,3,0.0,1.0,95,0.00,,,0.00,Wunderground v.1.15,2013-09-12 11:30:00,
2013-09-12 07:36:00,72.5,70.7,29.96,NNE,27,1.0,2.0,94,0.00,,,0.00,Wunderground v.1.15,2013-09-12 11:36:00,
2013-09-12 07:42:00,72.6,71.1,29.96,ENE,68,1.0,1.0,95,0.00,,,0.00,Wunderground v.1.15,2013-09-12 11:42:00,
2013-09-12 07:48:00,72.7,71.2,29.95,NNE,18,1.0,1.0,95,0.00,,,0.00,Wunderground v.1.15,2013-09-12 11:48:00,
2013-09-12 07:54:00,72.6,71.1,29.94,NE,56,0.0,1.0,95,0.00,,,0.00,Wunderground v.1.15,2013-09-12 11:54:00,
2013-09-12 08:00:00,72.5,71.0,29.94,NW,309,0.0,1.0,95,0.00,,,0.00,Wunderground v.1.15,2013-09-12 12:00:00,
2013-09-12 08:06:00,72.4,70.9,29.94,NW,309,0.0,3.0,95,0.00,,,0.00,Wunderground v.1.15,2013-09-12 12:06:00,
2013-09-12 08:12:00,72.5,71.0,29.94,NW,309,0.0,0.0,95,0.00,,,0.00,Wunderground v.1.15,2013-09-12 12:12:00,
2013-09-12 08:18:00,72.7,71.5,29.93,SE,129,0.0,1.0,96,0.00,,,0.00,Wunderground v.1.15,2013-09-12 12:18:00,
2013-09-12 08:24:00,72.8,71.3,29.94,ENE,59,0.0,1.0,95,0.00,,,0.00,Wunderground v.1.15,2013-09-12 12:24:00,
2013-09-12 08:30:00,73.0,71.5,29.94,NNE,33,0.0,0.0,95,0.00,,,0.00,Wunderground v.1.15,2013-09-12 12:30:00,
2013-09-12 08:36:00,73.3,71.5,29.94,NE,34,0.0,0.0,94,0.00,,,0.00,Wunderground v.1.15,2013-09-12 12:36:00,
2013-09-12 08:42:00,73.7,71.9,29.94,East,94,0.0,0.0,94,0.00,,,0.00,Wunderground v.1.15,2013-09-12 12:42:00,
2013-09-12 08:48:00,74.2,72.4,29.94,East,94,0.0,0.0,94,0.00,,,0.00,Wunderground v.1.15,2013-09-12 12:48:00,
2013-09-12 08:54:00,74.8,72.6,29.94,East,79,0.0,1.0,93,0.00,,,0.00,Wunderground v.1.15,2013-09-12 12:54:00,
2013-09-12 09:00:00,75.2,72.7,29.94,NNE,27,0.0,2.0,92,0.00,,,0.00,Wunderground v.1.15,2013-09-12 13:00:00,
2013-09-12 09:06:00,75.4,72.6,29.93,East,94,1.0,3.0,91,0.00,,,0.00,Wunderground v.1.15,2013-09-12 13:06:00,
2013-09-12 09:12:00,76.1,73.0,29.93,North,8,1.0,1.0,90,0.00,,,0.00,Wunderground v.1.15,2013-09-12 13:12:00,
2013-09-12 09:18:00,76.5,73.0,29.94,WNW,300,0.0,1.0,89,0.00,,,0.00,Wunderground v.1.15,2013-09-12 13:18:00,
2013-09-12 09:24:00,76.7,72.9,29.94,ESE,113,1.0,1.0,88,0.00,,,0.00,Wunderground v.1.15,2013-09-12 13:24:00,
2013-09-12 09:30:00,76.6,72.8,29.94,WSW,238,0.0,2.0,88,0.00,,,0.00,Wunderground v.1.15,2013-09-12 13:30:00,
2013-09-12 09:36:00,76.3,72.5,29.94,East,91,0.0,2.0,88,0.00,,,0.00,Wunderground v.1.15,2013-09-12 13:36:00,
2013-09-12 09:42:00,75.9,72.8,29.93,NNE,20,1.0,1.0,90,0.00,,,0.00,Wunderground v.1.15,2013-09-12 13:42:00,
2013-09-12 09:48:00,75.7,72.6,29.93,North,1,1.0,2.0,90,0.00,,,0.00,Wunderground v.1.15,2013-09-12 13:48:00,
2013-09-12 09:54:00,75.6,72.5,29.93,SSW,206,1.0,1.0,90,0.00,,,0.00,Wunderground v.1.15,2013-09-12 13:54:00,
2013-09-12 10:00:00,75.7,72.6,29.92,NNE,17,1.0,1.0,90,0.00,,,0.00,Wunderground v.1.15,2013-09-12 14:00:00,
2013-09-12 10:06:00,75.9,72.8,29.92,ESE,109,0.0,2.0,90,0.00,,,0.00,Wunderground v.1.15,2013-09-12 14:06:00,
2013-09-12 10:12:00,76.4,73.2,29.91,East,100,0.0,1.0,90,0.00,,,0.00,Wunderground v.1.15,2013-09-12 14:12:00,
2013-09-12 10:18:00,77.4,73.9,29.91,NW,311,1.0,1.0,89,0.00,,,0.00,Wunderground v.1.15,2013-09-12 14:18:00,
2013-09-12 10:24:00,78.1,73.9,29.91,NNE,22,1.0,4.0,87,0.00,,,0.00,Wunderground v.1.15,2013-09-12 14:24:00,
2013-09-12 10:30:00,78.5,74.0,29.92,West,269,1.0,1.0,86,0.00,,,0.00,Wunderground v.1.15,2013-09-12 14:30:00,
2013-09-12 10:36:00,79.1,74.5,29.92,NNE,15,1.0,1.0,86,0.00,,,0.00,Wunderground v.1.15,2013-09-12 14:36:00,
2013-09-12 10:42:00,79.3,75.1,29.91,ENE,58,1.0,2.0,87,0.00,,,0.00,Wunderground v.1.15,2013-09-12 14:42:00,
2013-09-12 10:48:00,79.2,74.3,29.91,WNW,300,0.0,2.0,85,0.00,,,0.00,Wunderground v.1.15,2013-09-12 14:48:00,
2013-09-12 10:54:00,79.0,73.7,29.91,North,3,0.0,2.0,84,0.00,,,0.00,Wunderground v.1.15,2013-09-12 14:54:00,
2013-09-12 11:00:00,79.1,74.2,29.90,ESE,108,1.0,1.0,85,0.00,,,0.00,Wunderground v.1.15,2013-09-12 15:00:00,
2013-09-12 11:06:00,79.2,74.3,29.90,North,355,1.0,4.0,85,0.00,,,0.00,Wunderground v.1.15,2013-09-12 15:06:00,
2013-09-12 11:12:00,79.1,73.8,29.90,East,85,1.0,1.0,84,0.00,,,0.00,Wunderground v.1.15,2013-09-12 15:12:00,
2013-09-12 11:18:00,79.2,73.9,29.90,SW,231,1.0,1.0,84,0.00,,,0.00,Wunderground v.1.15,2013-09-12 15:18:00,
2013-09-12 11:24:00,79.5,74.2,29.90,North,357,1.0,2.0,84,0.00,,,0.00,Wunderground v.1.15,2013-09-12 15:24:00,
2013-09-12 11:30:00,79.4,74.1,29.89,ESE,117,2.0,4.0,84,0.00,,,0.00,Wunderground v.1.15,2013-09-12 15:30:00,
2013-09-12 11:36:00,79.4,74.1,29.89,East,94,1.0,4.0,84,0.00,,,0.00,Wunderground v.1.15,2013-09-12 15:36:00,
2013-09-12 11:42:00,79.8,74.5,29.89,West,270,1.0,2.0,84,0.00,,,0.00,Wunderground v.1.15,2013-09-12 15:42:00,
2013-09-12 11:48:00,80.1,74.8,29.89,WNW,290,1.0,2.0,84,0.00,,,0.00,Wunderground v.1.15,2013-09-12 15:48:00,
2013-09-12 11:54:00,80.3,74.7,29.89,East,79,1.0,1.0,83,0.00,,,0.00,Wunderground v.1.15,2013-09-12 15:54:00,
2013-09-12 12:00:00,80.5,74.9,29.88,WNW,303,1.0,1.0,83,0.00,,,0.00,Wunderground v.1.15,2013-09-12 16:00:00,
2013-09-12 12:06:00,81.3,74.9,29.88,SW,227,1.0,5.0,81,0.00,,,0.00,Wunderground v.1.15,2013-09-12 16:06:00,
2013-09-12 12:12:00,80.9,74.5,29.88,East,101,2.0,2.0,81,0.00,,,0.00,Wunderground v.1.15,2013-09-12 16:12:00,
2013-09-12 12:18:00,80.3,74.3,29.88,ENE,58,2.0,4.0,82,0.00,,,0.00,Wunderground v.1.15,2013-09-12 16:18:00,
2013-09-12 12:24:00,80.2,74.2,29.88,ENE,64,2.0,4.0,82,0.00,,,0.00,Wunderground v.1.15,2013-09-12 16:24:00,
2013-09-12 12:30:00,80.5,74.9,29.87,SE,127,2.0,2.0,83,0.00,,,0.00,Wunderground v.1.15,2013-09-12 16:30:00,
2013-09-12 12:36:00,80.6,74.6,29.87,West,271,1.0,2.0,82,0.00,,,0.00,Wunderground v.1.15,2013-09-12 16:36:00,
2013-09-12 12:42:00,80.4,74.4,29.87,East,91,1.0,1.0,82,0.00,,,0.00,Wunderground v.1.15,2013-09-12 16:42:00,
2013-09-12 12:48:00,80.0,74.4,29.87,SW,219,1.0,1.0,83,0.00,,,0.00,Wunderground v.1.15,2013-09-12 16:48:00,
2013-09-12 12:54:00,79.5,74.9,29.88,South,184,1.0,1.0,86,0.00,,,0.00,Wunderground v.1.15,2013-09-12 16:54:00,
2013-09-12 13:00:00,78.8,74.6,29.88,NNE,19,0.0,0.0,87,0.00,,,0.01,Wunderground v.1.15,2013-09-12 17:00:00,
2013-09-12 13:06:00,78.0,74.5,29.88,East,94,0.0,6.0,89,3.35,,,0.14,Wunderground v.1.15,2013-09-12 17:06:00,
2013-09-12 13:12:00,76.9,74.1,29.87,SE,138,1.0,1.0,91,0.11,,,0.18,Wunderground v.1.15,2013-09-12 17:12:00,
2013-09-12 13:18:00,76.4,73.9,29.87,ESE,121,0.0,1.0,92,0.05,,,0.18,Wunderground v.1.15,2013-09-12 17:18:00,
2013-09-12 13:24:00,76.0,73.8,29.86,ESE,110,0.0,0.0,93,0.04,,,0.19,Wunderground v.1.15,2013-09-12 17:24:00,
2013-09-12 13:30:00,75.7,73.8,29.87,ESE,122,0.0,4.0,94,0.04,,,0.19,Wunderground v.1.15,2013-09-12 17:30:00,
2013-09-12 13:36:00,75.3,73.1,29.86,East,90,1.0,5.0,93,1.75,,,0.25,Wunderground v.1.15,2013-09-12 17:36:00,
2013-09-12 13:42:00,74.5,72.7,29.85,NNE,22,2.0,2.0,94,0.25,,,0.35,Wunderground v.1.15,2013-09-12 17:42:00,
2013-09-12 13:48:00,74.4,72.9,29.84,ENE,77,2.0,2.0,95,0.09,,,0.35,Wunderground v.1.15,2013-09-12 17:48:00,
2013-09-12 13:54:00,74.2,72.7,29.84,East,96,2.0,2.0,95,0.05,,,0.35,Wunderground v.1.15,2013-09-12 17:54:00,
2013-09-12 14:00:00,73.9,72.4,29.83,NE,50,1.0,1.0,95,0.05,,,0.36,Wunderground v.1.15,2013-09-12 18:00:00,
2013-09-12 14:06:00,73.7,72.2,29.82,SSE,152,1.0,6.0,95,0.05,,,0.36,Wunderground v.1.15,2013-09-12 18:06:00,
2013-09-12 14:12:00,73.6,72.1,29.82,East,84,1.0,1.0,95,0.00,,,0.36,Wunderground v.1.15,2013-09-12 18:12:00,
2013-09-12 14:18:00,73.8,72.6,29.82,East,79,1.0,2.0,96,0.00,,,0.36,Wunderground v.1.15,2013-09-12 18:18:00,
2013-09-12 14:24:00,74.1,72.9,29.82,NNE,29,1.0,2.0,96,0.00,,,0.36,Wunderground v.1.15,2013-09-12 18:24:00,
2013-09-12 14:30:00,74.4,72.9,29.82,East,99,1.0,3.0,95,0.00,,,0.36,Wunderground v.1.15,2013-09-12 18:30:00,
2013-09-12 14:36:00,74.6,73.1,29.82,ENE,75,1.0,3.0,95,0.00,,,0.36,Wunderground v.1.15,2013-09-12 18:36:00,
2013-09-12 14:42:00,74.6,72.8,29.82,NE,42,1.0,1.0,94,0.00,,,0.36,Wunderground v.1.15,2013-09-12 18:42:00,
2013-09-12 14:48:00,74.8,72.0,29.82,NW,316,1.0,3.0,91,0.00,,,0.36,Wunderground v.1.15,2013-09-12 18:48:00,
2013-09-12 14:54:00,74.9,71.4,29.82,East,80,2.0,2.0,89,0.00,,,0.36,Wunderground v.1.15,2013-09-12 18:54:00,
2013-09-12 15:00:00,75.2,71.7,29.81,ENE,70,2.0,2.0,89,0.00,,,0.36,Wunderground v.1.15,2013-09-12 19:00:00,
2013-09-12 15:06:00,75.0,71.5,29.81,East,84,2.0,9.0,89,0.00,,,0.36,Wunderground v.1.15,2013-09-12 19:06:00,
2013-09-12 15:12:00,74.9,71.4,29.80,East,84,2.0,2.0,89,0.00,,,0.36,Wunderground v.1.15,2013-09-12 19:12:00,
2013-09-12 15:18:00,74.6,70.8,29.80,ENE,70,2.0,6.0,88,0.00,,,0.36,Wunderground v.1.15,2013-09-12 19:18:00,
2013-09-12 15:24:00,74.6,71.1,29.80,NE,46,2.0,5.0,89,0.00,,,0.36,Wunderground v.1.15,2013-09-12 19:24:00,
2013-09-12 15:30:00,74.8,70.7,29.79,SE,144,2.0,6.0,87,0.00,,,0.36,Wunderground v.1.15,2013-09-12 19:30:00,
2013-09-12 15:36:00,74.7,70.6,29.79,NE,37,2.0,6.0,87,0.00,,,0.36,Wunderground v.1.15,2013-09-12 19:36:00,
2013-09-12 15:42:00,75.1,71.3,29.79,ENE,78,2.0,7.0,88,0.00,,,0.36,Wunderground v.1.15,2013-09-12 19:42:00,
2013-09-12 15:48:00,75.4,71.3,29.78,NNE,27,2.0,7.0,87,0.00,,,0.36,Wunderground v.1.15,2013-09-12 19:48:00,
2013-09-12 15:54:00,75.8,71.7,29.78,NNE,15,1.0,4.0,87,0.00,,,0.36,Wunderground v.1.15,2013-09-12 19:54:00,
2013-09-12 16:00:00,76.1,71.6,29.78,WNW,282,1.0,1.0,86,0.00,,,0.36,Wunderground v.1.15,2013-09-12 20:00:00,
2013-09-12 16:06:00,76.6,72.8,29.77,NW,317,2.0,7.0,88,0.00,,,0.36,Wunderground v.1.15,2013-09-12 20:06:00,
2013-09-12 16:12:00,77.1,72.6,29.78,West,277,2.0,2.0,86,0.00,,,0.36,Wunderground v.1.15,2013-09-12 20:12:00,
2013-09-12 16:18:00,77.3,73.1,29.78,WSW,248,1.0,2.0,87,0.00,,,0.36,Wunderground v.1.15,2013-09-12 20:18:00,
2013-09-12 16:24:00,77.4,72.9,29.78,East,96,1.0,1.0,86,0.00,,,0.36,Wunderground v.1.15,2013-09-12 20:24:00,
2013-09-12 16:30:00,77.6,73.1,29.77,ENE,66,2.0,4.0,86,0.00,,,0.36,Wunderground v.1.15,2013-09-12 20:30:00,
2013-09-12 16:36:00,77.8,72.9,29.77,WNW,285,1.0,4.0,85,0.00,,,0.36,Wunderground v.1.15,2013-09-12 20:36:00,
2013-09-12 16:42:00,78.0,73.1,29.77,ESE,115,1.0,2.0,85,0.00,,,0.36,Wunderground v.1.15,2013-09-12 20:42:00,
2013-09-12 16:48:00,78.1,73.2,29.77,NNE,19,1.0,2.0,85,0.00,,,0.36,Wunderground v.1.15,2013-09-12 20:48:00,
2013-09-12 16:54:00,77.6,73.1,29.77,NNE,31,1.0,3.0,86,0.00,,,0.36,Wunderground v.1.15,2013-09-12 20:54:00,
2013-09-12 17:00:00,77.1,72.9,29.77,NNE,22,1.0,1.0,87,0.00,,,0.36,Wunderground v.1.15,2013-09-12 21:00:00,
2013-09-12 17:06:00,76.7,72.9,29.77,East,90,1.0,9.0,88,0.00,,,0.36,Wunderground v.1.15,2013-09-12 21:06:00,
2013-09-12 17:12:00,76.4,72.9,29.77,East,89,0.0,0.0,89,0.00,,,0.36,Wunderground v.1.15,2013-09-12 21:12:00,
2013-09-12 17:18:00,76.0,72.9,29.76,East,98,0.0,2.0,90,0.00,,,0.36,Wunderground v.1.15,2013-09-12 21:18:00,
2013-09-12 17:24:00,75.8,72.7,29.75,East,95,0.0,0.0,90,0.00,,,0.36,Wunderground v.1.15,2013-09-12 21:24:00,
2013-09-12 17:30:00,75.8,73.0,29.75,SE,127,0.0,0.0,91,0.00,,,0.36,Wunderground v.1.15,2013-09-12 21:30:00,
2013-09-12 17:36:00,75.7,72.9,29.75,SE,125,0.0,1.0,91,0.00,,,0.36,Wunderground v.1.15,2013-09-12 21:36:00,
2013-09-12 17:42:00,75.5,72.7,29.75,SSE,150,0.0,1.0,91,0.00,,,0.36,Wunderground v.1.15,2013-09-12 21:42:00,
2013-09-12 17:48:00,75.4,72.9,29.75,East,98,1.0,1.0,92,0.00,,,0.36,Wunderground v.1.15,2013-09-12 21:48:00,
2013-09-12 17:54:00,75.2,72.7,29.75,NE,44,0.0,1.0,92,0.00,,,0.36,Wunderground v.1.15,2013-09-12 21:54:00,
2013-09-12 18:00:00,75.1,72.6,29.75,East,91,0.0,0.0,92,0.00,,,0.36,Wunderground v.1.15,2013-09-12 22:00:00,
2013-09-12 18:06:00,75.0,72.5,29.74,ESE,115,0.0,4.0,92,0.00,,,0.36,Wunderground v.1.15,2013-09-12 22:06:00,
2013-09-12 18:12:00,74.8,72.6,29.74,East,86,0.0,1.0,93,0.00,,,0.36,Wunderground v.1.15,2013-09-12 22:12:00,
2013-09-12 18:18:00,74.5,72.3,29.73,ESE,112,1.0,1.0,93,0.00,,,0.36,Wunderground v.1.15,2013-09-12 22:18:00,
2013-09-12 18:24:00,74.4,72.6,29.73,ESE,115,0.0,1.0,94,0.00,,,0.36,Wunderground v.1.15,2013-09-12 22:24:00,
2013-09-12 18:30:00,74.3,72.5,29.73,East,89,0.0,0.0,94,0.00,,,0.36,Wunderground v.1.15,2013-09-12 22:30:00,
2013-09-12 18:36:00,74.2,72.4,29.73,East,89,0.0,1.0,94,0.00,,,0.36,Wunderground v.1.15,2013-09-12 22:36:00,
2013-09-12 18:42:00,74.1,72.6,29.73,ENE,77,0.0,1.0,95,0.00,,,0.36,Wunderground v.1.15,2013-09-12 22:42:00,
2013-09-12 18:48:00,74.0,72.5,29.74,East,89,1.0,1.0,95,0.00,,,0.36,Wunderground v.1.15,2013-09-12 22:48:00,
2013-09-12 18:54:00,73.9,72.4,29.74,ESE,107,1.0,3.0,95,0.00,,,0.36,Wunderground v.1.15,2013-09-12 22:54:00,
2013-09-12 19:00:00,73.9,72.4,29.74,East,93,2.0,2.0,95,0.00,,,0.36,Wunderground v.1.15,2013-09-12 23:00:00,
2013-09-12 19:06:00,73.8,72.3,29.73,ENE,60,2.0,3.0,95,0.00,,,0.36,Wunderground v.1.15,2013-09-12 23:06:00,
2013-09-12 19:12:00,73.7,71.9,29.73,ESE,108,1.0,1.0,94,0.00,,,0.36,Wunderground v.1.15,2013-09-12 23:12:00,
2013-09-12 19:18:00,73.5,72.0,29.73,ESE,107,0.0,1.0,95,0.00,,,0.36,Wunderground v.1.15,2013-09-12 23:18:00,
2013-09-12 19:24:00,73.4,71.9,29.72,East,92,0.0,1.0,95,0.00,,,0.36,Wunderground v.1.15,2013-09-12 23:24:00,
2013-09-12 19:30:00,73.2,71.4,29.73,WSW,257,0.0,0.0,94,0.00,,,0.36,Wunderground v.1.15,2013-09-12 23:30:00,
2013-09-12 19:36:00,73.1,71.3,29.75,WSW,237,0.0,2.0,94,0.00,,,0.36,Wunderground v.1.15,2013-09-12 23:36:00,
2013-09-12 19:42:00,71.7,68.6,29.81,WNW,284,2.0,3.0,90,4.84,,,0.60,Wunderground v.1.15,2013-09-12 23:42:00,
2013-09-12 19:48:00,69.6,67.5,29.80,North,6,3.0,7.0,93,2.98,,,0.84,Wunderground v.1.15,2013-09-12 23:48:00,
2013-09-12 19:54:00,69.0,67.5,29.78,NE,34,2.0,3.0,95,0.65,,,0.97,Wunderground v.1.15,2013-09-12 23:54:00,
2013-09-12 20:00:00,68.9,67.4,29.77,NW,317,2.0,2.0,95,0.28,,,1.01,Wunderground v.1.15,2013-09-13 00:00:00,
2013-09-12 20:06:00,68.9,67.7,29.77,WSW,238,1.0,4.0,96,0.15,,,1.02,Wunderground v.1.15,2013-09-13 00:06:00,
2013-09-12 20:12:00,68.9,67.7,29.77,NE,55,0.0,1.0,96,0.16,,,1.04,Wunderground v.1.15,2013-09-13 00:12:00,
2013-09-12 20:18:00,68.8,67.6,29.77,NE,55,0.0,1.0,96,0.18,,,1.06,Wunderground v.1.15,2013-09-13 00:18:00,
2013-09-12 20:24:00,68.8,67.6,29.76,NE,56,0.0,0.0,96,0.16,,,1.07,Wunderground v.1.15,2013-09-13 00:24:00,
2013-09-12 20:30:00,68.8,67.9,29.76,East,80,0.0,0.0,97,0.11,,,1.08,Wunderground v.1.15,2013-09-13 00:30:00,
2013-09-12 20:36:00,68.7,67.8,29.75,East,81,0.0,1.0,97,0.12,,,1.09,Wunderground v.1.15,2013-09-13 00:36:00,
2013-09-12 20:42:00,68.7,67.8,29.75,East,81,0.0,0.0,97,0.10,,,1.10,Wunderground v.1.15,2013-09-13 00:42:00,
2013-09-12 20:48:00,68.7,67.8,29.76,East,80,0.0,1.0,97,0.06,,,1.10,Wunderground v.1.15,2013-09-13 00:48:00,
2013-09-12 20:54:00,68.6,67.7,29.76,East,85,0.0,0.0,97,0.04,,,1.10,Wunderground v.1.15,2013-09-13 00:54:00,
2013-09-12 21:00:00,68.5,67.6,29.76,East,85,0.0,0.0,97,0.00,,,1.11,Wunderground v.1.15,2013-09-13 01:00:00,
2013-09-12 21:06:00,68.5,67.9,29.76,East,85,0.0,15.0,98,0.00,,,1.11,Wunderground v.1.15,2013-09-13 01:06:00,
2013-09-12 21:12:00,68.5,67.9,29.76,East,85,0.0,1.0,98,0.00,,,1.11,Wunderground v.1.15,2013-09-13 01:12:00,
2013-09-12 21:18:00,68.4,67.5,29.76,South,184,0.0,1.0,97,0.00,,,1.11,Wunderground v.1.15,2013-09-13 01:18:00,
2013-09-12 21:24:00,68.2,67.3,29.76,ESE,111,0.0,1.0,97,0.00,,,1.11,Wunderground v.1.15,2013-09-13 01:24:00,
2013-09-12 21:30:00,68.1,67.5,29.76,ESE,111,1.0,1.0,98,0.00,,,1.11,Wunderground v.1.15,2013-09-13 01:30:00,
2013-09-12 21:36:00,68.0,67.1,29.77,ESE,111,0.0,1.0,97,0.00,,,1.11,Wunderground v.1.15,2013-09-13 01:36:00,
2013-09-12 21:42:00,67.9,67.3,29.76,ESE,111,0.0,0.0,98,0.00,,,1.12,Wunderground v.1.15,2013-09-13 01:42:00,
2013-09-12 21:48:00,67.9,67.3,29.76,ESE,111,0.0,0.0,98,0.00,,,1.12,Wunderground v.1.15,2013-09-13 01:48:00,
2013-09-12 21:54:00,67.8,67.2,29.76,ESE,111,0.0,0.0,98,0.00,,,1.12,Wunderground v.1.15,2013-09-13 01:54:00,
2013-09-12 22:00:00,67.7,67.1,29.76,ESE,111,0.0,0.0,98,0.00,,,1.12,Wunderground v.1.15,2013-09-13 02:00:00,
2013-09-12 22:06:00,67.6,67.0,29.76,ESE,110,0.0,1.0,98,0.00,,,1.12,Wunderground v.1.15,2013-09-13 02:06:00,
2013-09-12 22:12:00,67.6,67.0,29.75,ESE,110,0.0,0.0,98,0.00,,,1.12,Wunderground v.1.15,2013-09-13 02:12:00,
2013-09-12 22:18:00,67.5,66.9,29.76,ESE,110,0.0,0.0,98,0.00,,,1.12,Wunderground v.1.15,2013-09-13 02:18:00,
2013-09-12 22:24:00,67.5,66.9,29.76,ESE,110,0.0,0.0,98,0.00,,,1.12,Wunderground v.1.15,2013-09-13 02:24:00,
2013-09-12 22:30:00,67.5,66.9,29.75,ESE,110,0.0,0.0,98,0.00,,,1.12,Wunderground v.1.15,2013-09-13 02:30:00,
2013-09-12 22:36:00,67.5,66.9,29.75,ESE,110,0.0,0.0,98,0.00,,,1.12,Wunderground v.1.15,2013-09-13 02:36:00,
2013-09-12 22:42:00,67.6,67.0,29.75,ESE,110,0.0,0.0,98,0.00,,,1.12,Wunderground v.1.15,2013-09-13 02:42:00,
2013-09-12 22:48:00,67.5,66.9,29.75,ESE,110,0.0,0.0,98,0.00,,,1.12,Wunderground v.1.15,2013-09-13 02:48:00,
2013-09-12 22:54:00,67.5,66.9,29.75,ESE,110,0.0,0.0,98,0.00,,,1.12,Wunderground v.1.15,2013-09-13 02:54:00,
2013-09-12 23:00:00,67.5,66.9,29.75,ESE,110,0.0,0.0,98,0.00,,,1.12,Wunderground v.1.15,2013-09-13 03:00:00,
2013-09-12 23:06:00,67.5,66.9,29.74,ESE,110,0.0,1.0,98,0.00,,,1.12,Wunderground v.1.15,2013-09-13 03:06:00,
2013-09-12 23:12:00,67.5,66.9,29.75,ESE,110,0.0,0.0,98,0.00,,,1.12,Wunderground v.1.15,2013-09-13 03:12:00,
2013-09-12 23:18:00,67.5,66.9,29.75,ESE,110,0.0,0.0,98,0.00,,,1.12,Wunderground v.1.15,2013-09-13 03:18:00,
2013-09-12 23:24:00,67.5,66.9,29.75,ESE,110,0.0,0.0,98,0.00,,,1.12,Wunderground v.1.15,2013-09-13 03:24:00,
2013-09-12 23:30:00,67.5,66.9,29.75,ESE,110,0.0,0.0,98,0.00,,,1.12,Wunderground v.1.15,2013-09-13 03:30:00,
2013-09-12 23:36:00,67.5,66.9,29.75,WSW,243,0.0,0.0,98,0.00,,,1.12,Wunderground v.1.15,2013-09-13 03:36:00,
2013-09-12 23:42:00,67.4,66.8,29.75,WSW,243,0.0,0.0,98,0.00,,,1.12,Wunderground v.1.15,2013-09-13 03:42:00,
2013-09-12 23:48:00,67.4,66.8,29.75,WSW,243,0.0,0.0,98,0.00,,,1.12,Wunderground v.1.15,2013-09-13 03:48:00,
2013-09-12 23:54:00,67.3,66.7,29.75,NE,48,0.0,1.0,98,0.00,,,1.12,Wunderground v.1.15,2013-09-13 03:54:00,